GFSCGP_sfc_30mbdewp_000.txt.gz
Dewpoint
21 19 14 14 15 14 13 17 24 28 36 38 39 46 45 47 49 47 48 54 55 56 58 61 64 66 66 67 68 70 70 71 71 71 70 70 69 70 69 69 69 70 71 71
15 14 13 14 17 15 13 14 17 32 39 39 45 45 48 48 44 48 48 52 53 55 57 61 63 64 65 66 68 69 71 71 72 70 71 71 69 67 68 70 70 69 68 69
7 8 17 17 16 16 16 15 17 25 42 41 45 45 50 50 51 49 52 52 55 56 57 59 61 63 64 65 68 69 71 71 73 72 69 66 62 64 60 61 61 64 67 66
15 17 16 16 15 17 16 21 21 24 40 29 41 26 47 49 51 52 51 55 55 57 58 58 59 61 62 65 68 71 73 72 70 67 63 63 56 57 59 60 60 64 63 65
16 15 16 15 15 19 23 32 31 32 37 36 42 34 29 46 48 49 51 51 53 56 57 57 56 59 62 67 69 69 68 66 65 64 62 57 58 56 58 59 60 62 62 64
17 18 17 16 18 19 35 37 37 34 28 26 24 30 20 30 43 45 49 52 54 55 56 58 58 61 65 65 65 62 64 63 63 61 61 61 61 60 57 58 59 57 58 60
17 16 19 20 22 27 27 23 18 18 18 16 27 26 21 26 44 43 46 52 54 55 56 57 60 63 63 64 60 59 62 63 62 57 57 59 59 60 60 60 55 60 56 57
14 16 17 19 17 20 19 15 11 12 10 10 32 18 23 39 42 41 46 49 54 55 55 57 61 62 63 62 59 59 61 61 58 58 61 61 61 56 57 57 59 56 56 56
11 12 18 18 20 20 19 18 16 16 15 12 13 24 32 38 41 43 48 50 53 53 54 57 60 61 61 58 59 60 61 60 59 58 62 61 61 61 59 61 61 57 60 56
14 14 17 21 23 25 23 21 17 15 15 15 14 15 16 28 30 40 45 50 54 53 54 56 58 60 58 57 58 59 61 60 59 59 59 57 58 60 60 60 60 60 60 60
13 15 20 23 20 16 22 20 22 20 20 15 15 14 25 25 28 33 44 50 54 52 51 55 57 60 56 56 57 58 59 59 59 59 58 58 58 58 58 58 59 59 60 60
14 16 16 18 24 26 20 18 21 20 25 21 20 15 28 27 30 33 38 49 52 54 49 49 56 59 55 56 54 55 56 56 56 57 57 57 58 59 58 57 58 58 58 59
17 15 13 17 23 27 23 24 23 22 22 22 19 18 34 34 38 40 39 46 52 55 51 49 53 55 55 55 54 54 54 51 51 54 55 56 57 57 57 57 56 57 58 58
25 16 15 10 16 16 21 23 25 21 21 22 22 23 24 32 35 35 41 47 51 54 53 51 52 53 55 55 56 56 54 50 51 53 53 55 58 58 57 57 57 57 59 59
24 24 21 17 15 17 18 22 24 23 22 22 21 25 29 32 32 36 37 40 49 51 53 54 52 53 55 56 57 56 54 53 54 54 55 55 57 58 57 58 59 59 58 57
33 27 28 20 21 20 18 19 23 25 24 28 27 26 24 28 30 29 32 38 45 50 53 54 53 53 56 56 56 54 54 52 56 57 55 56 57 59 59 58 58 58 56 55
32 31 31 22 26 25 23 25 26 26 29 27 23 25 27 27 29 31 38 40 43 48 52 52 53 54 55 54 50 51 52 52 56 57 56 56 58 58 58 56 56 56 56 56
36 34 29 24 30 25 25 30 27 28 28 28 28 27 26 29 35 42 43 44 43 46 50 52 53 54 55 50 47 50 49 53 56 57 56 56 57 57 58 56 54 55 55 55
38 34 27 27 27 24 30 32 29 28 28 30 30 27 26 33 42 40 45 47 48 49 52 52 52 53 50 47 47 49 52 53 54 54 55 55 56 56 57 56 55 55 55 52
36 39 31 27 22 20 23 28 32 33 27 27 29 27 28 37 30 36 48 48 49 50 52 53 52 49 49 49 48 51 52 53 53 52 53 52 54 56 56 55 55 55 54 52
32 33 26 24 26 23 33 32 33 26 26 30 29 28 31 37 36 49 49 49 50 51 52 53 50 47 48 51 52 51 52 52 53 52 51 51 56 58 58 55 55 55 55 54
31 29 25 26 26 26 35 33 30 40 36 35 35 35 36 41 46 47 49 50 50 50 50 51 49 48 50 54 56 56 55 57 54 53 54 57 59 58 51 58 56 54 55 56
30 34 32 31 32 41 38 40 40 41 42 42 44 44 43 44 44 46 48 49 49 49 48 48 49 52 55 57 59 58 58 58 57 60 59 59 56 55 58 58 57 54 54 51
35 38 31 35 38 37 36 37 40 42 44 45 44 43 46 47 45 46 49 50 49 50 51 51 52 52 53 55 58 59 59 62 60 57 58 59 57 57 58 57 53 51 49 51
34 36 33 33 37 35 36 40 41 42 42 43 44 44 46 46 45 45 46 46 47 49 50 51 51 52 54 57 58 58 58 57 56 56 56 56 54 54 54 58 56 53 53 53
34 33 32 29 37 37 38 36 39 40 41 42 45 45 45 44 42 42 43 47 48 51 52 52 54 53 55 55 56 58 58 58 57 55 53 52 51 50 49 50 53 48 49 48

GFSCGP_sfc_30mbdewp_003.txt.gz
Dewpoint
22 16 14 15 17 18 21 20 23 24 30 31 32 38 44 46 44 45 48 51 51 52 54 57 59 62 63 64 66 68 69 71 71 71 70 71 70 71 70 71 70 70 71 71
20 17 15 14 14 16 14 14 20 23 28 29 31 38 40 43 44 44 45 48 48 50 52 57 59 61 62 63 65 67 68 71 71 70 72 72 70 65 63 65 67 68 66 68
13 16 17 14 13 13 14 12 12 19 25 28 35 34 41 41 42 44 43 45 47 49 49 54 57 59 59 63 66 67 69 70 72 73 70 68 66 66 60 58 59 62 63 62
9 8 11 10 13 14 12 13 14 14 24 24 26 24 39 43 40 40 43 44 46 47 47 49 52 55 56 60 65 68 70 71 70 67 63 63 58 54 58 57 57 61 61 62
9 9 12 13 13 14 18 16 15 16 18 23 28 26 39 37 44 42 40 44 47 48 49 49 48 52 55 60 63 68 70 66 64 63 60 56 53 51 52 55 57 59 62 62
13 17 15 14 14 15 23 23 22 22 20 20 26 33 24 41 44 45 44 41 44 47 49 50 50 53 56 61 64 66 65 64 62 60 59 58 57 57 54 56 57 55 55 56
15 14 14 14 14 18 21 19 19 18 20 20 21 19 25 22 32 31 40 44 44 46 48 51 52 55 59 61 63 61 63 63 62 58 55 54 57 58 59 59 55 59 54 54
15 12 13 17 15 17 18 17 16 16 14 15 20 19 16 17 29 36 38 41 46 49 49 50 53 57 61 61 61 57 62 63 61 57 59 60 61 55 55 55 59 57 56 55
14 13 15 15 16 17 18 15 16 12 16 15 16 19 19 31 30 35 36 39 46 49 51 51 54 59 60 60 59 58 61 62 59 57 62 62 61 60 59 60 60 57 59 56
14 14 15 13 15 17 20 18 14 14 12 15 16 15 15 27 26 27 32 37 43 49 53 52 53 59 59 60 57 57 59 60 59 58 59 55 55 58 60 60 60 60 60 60
13 13 15 15 15 16 17 19 20 18 21 17 15 17 21 23 24 26 29 34 42 47 53 51 53 57 59 58 56 54 57 58 59 59 58 57 56 57 58 58 57 58 59 60
12 12 14 14 16 16 16 16 18 19 21 20 18 18 22 22 23 28 30 34 41 50 54 52 54 56 57 56 55 53 53 55 56 56 57 56 57 58 57 57 57 58 57 58
12 10 12 14 17 15 15 16 18 18 19 25 24 21 29 27 29 31 33 32 41 49 53 52 53 55 58 55 56 52 51 51 52 54 56 56 57 58 58 58 57 57 56 57
16 12 11 10 14 18 18 16 17 17 20 20 24 23 29 29 32 33 33 36 38 46 52 52 51 55 59 56 57 52 51 50 50 51 51 53 56 58 58 58 57 58 58 58
15 17 17 15 12 15 16 17 16 19 19 19 20 26 26 28 29 32 31 32 37 44 50 53 50 52 60 57 59 54 52 51 50 52 53 54 56 58 59 58 58 57 57 56
23 18 20 17 16 11 13 15 17 18 19 19 19 21 27 27 29 28 30 30 32 38 48 53 53 52 57 57 57 55 52 52 54 55 55 55 55 57 58 58 57 57 56 55
28 23 22 20 19 16 15 16 16 17 20 21 20 24 29 29 28 30 33 34 35 35 43 50 54 56 58 56 57 54 52 53 53 56 56 56 56 57 57 56 56 55 56 57
32 31 26 23 21 18 20 20 21 19 22 24 27 28 30 28 28 32 35 38 41 39 39 48 53 55 56 56 56 52 51 54 54 56 56 56 56 57 56 56 56 56 56 57
28 33 27 24 23 25 25 29 24 24 25 27 28 30 31 27 30 31 35 42 45 46 46 48 52 54 56 55 53 51 50 51 53 56 56 57 56 56 56 56 56 56 56 55
27 32 30 26 24 21 27 29 30 28 25 28 30 30 30 29 28 40 44 45 47 50 51 52 53 54 56 53 47 49 51 52 53 55 55 55 55 54 55 56 56 56 56 55
29 28 23 20 23 24 25 32 33 29 32 33 30 30 29 30 33 44 45 46 49 50 53 54 54 54 56 51 48 51 52 53 55 54 53 55 54 55 56 57 60 62 56 56
31 27 22 22 21 21 31 30 28 42 38 36 35 34 33 33 33 37 44 47 48 50 52 54 53 52 51 51 52 53 56 57 56 56 54 54 56 56 51 57 59 58 56 56
30 36 35 36 38 40 38 40 40 40 39 38 38 37 37 36 33 35 41 47 48 49 50 51 51 51 50 51 54 57 59 59 59 58 58 56 58 54 54 56 59 57 56 55
36 36 30 34 37 37 36 37 40 41 40 39 39 40 40 39 40 40 45 48 49 50 50 49 50 50 52 56 59 61 61 60 60 60 60 60 59 58 57 59 54 53 52 54
33 35 30 31 36 39 39 39 39 39 41 41 42 42 43 43 41 44 49 51 52 52 52 53 53 52 54 57 58 59 61 63 61 59 56 55 53 55 54 58 55 53 53 51
30 30 30 33 39 39 40 37 38 39 40 41 42 45 46 47 46 48 50 50 51 52 52 54 53 51 56 57 59 59 59 59 58 55 54 52 50 49 47 56 52 49 49 47

GFSCGP_sfc_30mbdewp_006.txt.gz
Dewpoint
28 22 17 15 19 23 25 24 30 31 39 40 38 40 42 41 44 48 49 50 50 50 56 58 62 64 64 65 68 68 69 70 71 71 70 70 69 71 71 72 71 71 71 71
22 17 16 16 19 18 17 18 20 27 30 32 41 41 42 40 41 45 48 50 49 51 52 55 56 57 59 65 69 69 71 72 73 72 73 72 71 70 71 70 71 70 69 70
18 17 16 14 14 14 16 14 14 23 26 27 28 39 42 42 41 42 45 49 49 49 52 55 57 58 59 63 67 68 71 72 72 72 73 72 71 68 66 65 67 66 64 64
16 17 16 15 12 12 12 14 13 13 21 21 28 26 42 42 39 41 42 44 46 48 51 54 56 58 59 64 66 70 71 72 73 70 65 66 60 55 63 60 65 62 63 64
10 12 13 15 14 13 12 13 12 13 13 15 19 25 38 39 37 38 40 42 44 47 49 51 53 56 57 63 65 70 72 71 69 66 62 60 61 59 57 57 59 60 62 65
10 11 8 10 11 12 13 21 15 14 14 14 17 24 34 40 42 40 40 40 43 45 47 48 52 55 55 61 64 69 71 68 66 64 62 59 56 58 58 62 60 60 59 59
8 8 11 12 12 14 15 20 20 18 18 18 18 21 31 36 37 43 50 52 42 44 47 49 50 53 56 61 64 69 69 68 66 62 60 56 56 58 59 62 61 59 58 58
8 7 14 13 13 14 15 18 18 19 17 17 21 24 30 30 37 44 47 48 42 42 48 50 53 55 59 62 66 66 67 67 66 62 60 59 60 61 61 63 62 60 59 60
9 13 15 12 14 15 17 17 17 16 15 13 18 21 22 24 25 24 30 29 43 42 45 50 53 57 61 62 65 66 67 68 66 62 64 64 63 62 62 62 62 61 62 61
14 16 13 13 15 16 17 19 16 15 14 16 15 15 18 29 27 27 25 28 35 45 46 48 51 58 62 63 65 65 67 67 65 64 65 64 63 63 63 62 61 62 63 63
15 15 15 13 14 13 15 17 16 15 14 14 16 22 30 32 28 26 27 29 31 34 47 51 52 60 63 62 63 62 64 66 64 62 63 60 57 58 62 61 61 61 63 63
14 14 15 15 15 15 14 16 20 20 21 23 24 20 25 25 25 25 28 29 35 40 44 53 53 60 62 62 62 60 60 62 62 62 62 61 60 59 59 60 60 61 61 62
15 14 13 15 14 15 14 16 16 17 18 22 21 23 29 24 25 28 29 32 40 43 49 55 54 56 61 61 61 59 57 58 59 61 60 60 60 61 61 61 62 61 61 61
18 11 14 11 16 16 17 15 13 14 19 19 21 28 28 28 30 35 34 36 37 46 46 55 56 56 60 61 61 59 56 54 56 58 59 61 62 61 62 62 63 61 62 62
13 19 14 12 12 12 15 16 15 15 18 18 23 31 34 36 33 34 34 32 32 39 47 55 55 57 61 62 61 60 57 55 54 55 56 59 61 62 63 63 61 62 62 61
14 16 15 14 15 12 12 12 18 18 15 15 18 24 34 35 34 31 31 31 33 35 38 45 57 56 62 62 61 60 57 57 55 57 57 59 60 62 62 63 63 62 62 61
21 17 21 17 18 17 15 15 12 15 18 18 23 26 33 34 32 31 32 34 36 38 39 43 51 57 63 62 61 60 58 59 57 58 58 59 60 60 61 62 61 61 60 60
29 30 25 20 23 19 19 19 16 14 18 19 25 28 32 32 31 30 32 34 35 39 41 43 49 55 62 61 60 61 59 58 61 61 61 60 61 61 62 62 61 60 61 61
40 39 27 25 22 21 24 25 31 32 29 25 25 30 31 32 30 38 39 34 39 42 47 49 44 52 60 60 61 61 57 58 59 60 61 61 61 61 62 62 61 60 60 60
36 41 39 30 23 20 25 30 33 36 30 37 36 35 32 33 28 43 44 43 44 45 48 49 50 55 61 60 61 59 56 59 58 59 61 62 62 62 61 61 60 60 60 59
24 27 26 24 24 21 26 34 35 32 35 39 37 36 36 34 37 43 45 44 45 47 51 54 55 57 61 60 59 56 55 57 59 59 61 61 62 62 61 61 61 62 57 55
30 30 27 27 23 22 32 36 33 42 42 39 37 39 37 36 35 35 38 46 46 47 51 54 57 61 61 60 60 56 57 59 61 60 60 61 62 61 58 60 60 62 61 59
27 38 40 43 45 49 41 41 42 41 42 40 39 39 38 37 37 36 37 41 48 48 52 55 57 61 60 58 56 58 59 60 61 62 62 61 61 60 60 59 58 61 60 60
44 44 40 42 49 47 43 41 40 39 39 37 37 37 37 36 37 39 40 45 50 49 53 55 58 59 58 63 64 64 64 63 62 63 64 63 62 62 61 60 59 59 58 56
45 45 41 41 48 44 41 40 40 38 39 38 38 37 37 39 41 43 44 50 51 58 57 60 60 61 61 61 60 61 61 62 64 64 63 62 61 60 59 56 55 56 50 51
32 38 40 39 38 41 37 37 37 37 37 39 40 38 38 42 45 50 55 54 57 58 58 57 59 61 59 59 60 61 56 61 61 60 58 58 57 54 58 57 52 48 47 47

GFSCGP_sfc_30mbdewp_009.txt.gz
Dewpoint
14 23 26 25 21 18 28 27 33 35 36 38 38 46 48 48 49 49 52 54 55 57 61 63 63 64 66 66 66 67 69 71 71 71 70 70 68 70 70 71 71 71 70 70
15 25 27 26 22 20 21 31 33 35 38 39 39 42 44 48 48 48 50 51 53 54 62 63 63 63 65 66 68 68 70 71 71 72 71 72 72 71 71 71 72 71 70 70
16 27 28 25 18 17 19 19 29 34 39 39 41 42 47 47 46 49 50 51 51 55 60 63 64 64 66 68 69 70 70 71 72 71 73 72 71 71 67 66 65 62 62 65
17 22 22 19 16 16 16 17 15 18 36 36 41 39 46 47 45 46 49 50 51 54 55 58 58 60 67 68 70 71 71 70 72 72 71 69 67 58 64 63 63 61 65 62
19 19 18 17 16 15 12 14 13 13 15 26 33 26 41 45 43 43 46 50 50 53 54 57 57 58 64 68 68 71 70 71 72 66 66 62 56 57 62 62 60 57 59 63
17 18 16 17 17 17 16 12 15 14 14 13 17 24 40 42 41 40 43 47 48 52 54 56 58 59 64 66 70 70 72 70 67 62 60 57 56 58 59 60 56 59 58 62
14 14 12 12 13 14 12 11 18 17 14 13 17 16 31 41 41 40 44 44 46 50 53 55 56 58 63 66 69 72 69 66 65 61 61 58 58 58 58 58 61 59 59 63
14 11 11 9 9 10 12 16 22 19 19 19 21 21 28 41 43 44 44 43 42 46 50 53 55 56 63 65 70 70 67 66 64 64 61 58 59 58 60 64 63 58 58 61
11 12 13 13 12 14 14 17 20 20 23 20 23 25 32 40 41 43 45 45 42 42 48 51 54 56 61 65 69 69 67 66 65 63 61 60 61 61 63 62 61 60 64 60
14 12 13 14 13 13 17 20 16 19 15 16 18 27 27 31 36 39 46 45 45 46 49 51 54 57 61 66 68 68 67 66 65 64 63 63 63 63 62 62 61 61 61 62
13 14 14 16 11 13 19 18 18 20 20 16 19 26 38 32 30 28 26 41 45 47 50 55 56 58 62 66 67 67 67 66 66 64 63 64 65 64 63 62 61 61 62 63
13 18 17 13 16 16 16 16 21 23 19 25 25 26 30 31 31 33 34 37 36 44 49 53 53 58 62 65 66 66 67 67 65 65 63 64 58 59 62 61 61 61 61 62
15 16 16 20 15 15 14 16 20 25 21 19 23 25 35 29 28 32 34 39 38 38 50 55 56 55 62 64 64 65 66 66 64 62 64 61 59 59 60 61 61 61 61 60
20 19 20 17 20 16 15 16 19 18 16 16 23 28 34 37 37 36 36 35 42 43 55 54 59 60 62 63 62 63 63 63 62 62 62 61 60 60 61 61 61 62 62 61
21 19 20 18 15 14 17 17 16 15 17 21 25 32 33 34 35 35 34 32 34 41 50 57 59 62 62 62 62 62 60 62 61 61 61 60 61 61 62 62 62 63 61 62
21 21 23 17 17 14 13 16 20 21 18 16 19 31 34 35 39 37 35 33 35 37 36 48 59 61 62 62 62 62 59 59 60 60 60 62 62 61 61 61 62 62 60 61
22 26 21 16 17 18 18 20 20 19 21 20 19 29 39 39 38 39 37 35 35 36 40 41 44 60 62 63 63 61 60 62 61 60 60 60 61 61 61 62 62 63 62 62
37 35 23 18 18 14 23 23 26 32 35 33 33 37 34 36 33 34 35 35 37 38 40 41 45 61 63 64 64 63 63 60 59 58 59 60 60 61 61 62 62 62 62 59
39 38 37 27 20 22 23 23 32 30 35 37 36 39 35 34 43 43 43 41 41 45 47 48 49 63 64 63 62 62 61 59 60 59 59 60 60 59 61 62 62 61 62 60
41 40 35 37 32 30 27 33 37 37 35 37 36 37 40 34 41 43 44 45 45 46 48 49 50 61 63 62 61 62 61 60 60 59 61 62 62 62 62 62 62 62 61 59
37 36 32 35 34 34 40 43 36 33 34 38 37 35 37 42 45 47 45 46 47 47 50 52 53 62 62 62 63 61 60 59 60 61 63 62 62 62 62 62 63 61 61 59
37 36 32 35 35 32 46 43 40 43 45 44 43 43 40 39 40 41 38 45 48 47 52 54 60 63 64 63 62 61 60 61 62 61 61 62 63 63 63 63 62 61 60 59
42 46 43 46 44 49 51 49 48 45 43 42 40 40 40 40 40 40 40 37 44 50 53 58 64 64 63 63 63 60 56 55 61 63 63 63 63 63 61 62 61 60 58 58
47 49 46 47 49 48 49 48 47 50 47 43 43 41 42 42 41 41 42 44 55 60 61 62 60 58 58 59 58 58 57 57 56 57 60 56 57 62 62 62 60 59 59 58
47 48 47 47 47 46 44 46 47 46 45 42 44 43 42 42 47 51 51 59 61 61 61 61 58 59 58 59 58 56 54 52 54 54 49 53 62 61 58 55 56 56 50 51
48 46 46 44 50 49 47 45 37 36 37 36 36 39 43 44 51 56 61 61 60 59 59 59 58 57 57 60 57 54 52 54 55 53 56 61 59 59 58 53 50 48 47 46

GFSCGP_sfc_30mbdewp_012.txt.gz
Dewpoint
11 12 12 16 26 24 24 35 35 36 38 47 48 50 51 52 52 52 53 54 55 57 57 59 60 61 63 64 65 66 68 71 71 71 70 70 70 70 70 70 71 70 70 70
9 12 15 24 28 26 22 29 35 36 37 38 48 49 50 52 53 54 54 56 56 58 59 60 62 63 64 64 64 67 68 71 71 71 70 70 70 70 70 71 71 71 70 70
9 13 19 26 26 26 23 27 33 34 37 40 46 46 48 50 52 51 54 56 57 59 59 60 62 63 64 64 66 67 70 70 70 70 71 71 72 71 68 67 68 65 64 66
12 13 17 26 26 26 22 21 30 36 36 35 42 40 45 47 47 47 50 54 55 60 60 61 62 62 65 66 68 69 71 70 71 71 71 70 67 65 64 63 61 62 63 62
9 11 13 19 25 24 20 19 18 34 36 36 39 38 41 46 43 44 47 51 53 60 61 62 62 62 65 67 68 69 70 70 71 71 70 70 64 60 63 62 60 58 60 63
9 15 19 19 21 21 19 15 18 26 29 32 36 36 34 44 42 42 46 50 51 58 61 62 63 63 65 67 69 70 69 69 70 68 66 61 56 59 60 59 57 60 58 65
9 9 16 19 18 18 16 14 11 10 13 14 18 37 35 43 44 43 43 50 51 55 58 61 60 62 66 67 68 70 69 68 68 62 60 57 57 57 57 57 59 60 62 63
12 9 14 15 15 14 13 13 12 10 15 15 21 17 16 34 44 45 43 50 51 54 54 57 56 60 65 66 68 70 69 68 67 61 59 58 58 58 57 59 61 58 59 62
13 12 16 15 14 12 10 14 17 16 24 21 20 22 30 35 42 42 44 48 49 52 53 55 57 58 63 66 67 69 69 67 64 62 61 58 59 59 61 63 61 59 62 62
10 9 13 14 13 13 10 15 14 19 16 16 18 22 26 39 40 41 42 44 45 51 53 55 56 58 63 65 67 69 68 66 64 63 61 59 59 61 62 62 61 61 61 61
10 12 10 15 13 11 17 15 18 18 19 16 15 21 33 37 41 42 44 44 44 47 51 54 56 57 62 64 67 69 68 66 63 63 61 60 61 61 62 62 61 61 61 61
11 10 8 9 15 14 14 15 18 15 16 23 21 23 33 35 39 42 44 46 46 46 50 52 54 56 61 64 68 68 67 66 64 63 63 62 63 63 62 62 61 61 61 62
13 11 9 12 13 17 14 18 21 23 23 21 19 21 36 34 32 34 35 40 44 48 53 54 54 55 60 63 67 67 67 66 65 64 63 62 62 62 62 61 61 60 60 60
16 12 10 10 13 17 13 14 19 21 19 20 21 28 33 33 32 35 37 41 44 47 51 55 55 56 60 64 66 67 66 66 64 65 63 62 61 58 60 61 61 60 60 60
14 9 19 17 15 18 17 14 17 17 19 18 19 28 31 34 34 35 36 37 42 46 51 51 53 54 60 64 65 66 66 66 64 64 63 62 60 59 59 60 60 60 61 61
21 11 14 12 15 18 14 15 16 19 20 20 23 27 36 37 38 36 35 37 39 42 49 55 55 55 53 62 64 65 65 65 64 62 62 63 61 60 60 60 60 61 61 61
16 18 19 12 18 18 16 19 18 19 29 24 23 26 37 37 36 36 34 34 34 36 39 44 57 60 59 61 63 63 63 64 63 62 62 62 62 61 60 60 61 61 61 61
28 20 23 17 18 13 17 23 27 33 36 37 31 29 35 37 37 39 37 35 35 36 37 38 44 56 62 62 63 64 62 63 63 62 62 62 62 61 61 61 61 61 61 62
42 35 30 19 14 17 24 36 33 28 33 38 38 38 40 40 41 40 39 37 36 37 40 42 45 49 61 63 64 63 62 63 62 62 61 62 61 61 60 61 61 61 61 61
38 39 30 34 19 16 36 43 44 37 32 38 41 40 40 39 35 40 43 41 44 46 45 44 47 54 64 64 63 61 61 61 61 61 61 61 60 60 60 61 61 61 61 61
39 38 33 35 30 32 44 47 42 30 36 40 38 40 41 38 41 44 46 44 44 44 44 49 53 58 63 63 62 62 61 61 61 61 60 60 61 61 60 61 61 61 62 60
43 43 40 38 33 32 46 44 40 44 43 43 43 44 43 44 46 45 44 45 47 47 48 54 61 63 63 62 62 61 60 62 62 62 63 63 63 62 61 61 62 62 61 59
39 44 44 48 45 50 50 46 49 50 44 44 42 43 43 42 43 43 43 45 46 51 57 62 61 62 63 61 60 59 59 59 59 58 58 58 58 58 63 63 62 60 59 57
47 51 46 46 47 50 49 50 49 47 45 43 44 45 45 44 48 49 47 49 57 61 60 59 60 60 59 59 58 57 58 59 56 57 55 55 56 53 52 61 61 59 58 58
48 48 48 49 48 49 46 45 46 43 40 40 41 42 43 42 50 57 57 60 61 61 60 60 59 59 58 58 58 58 57 56 55 55 54 55 55 60 60 57 56 56 52 53
50 46 44 43 48 47 45 46 41 37 36 35 35 34 38 39 43 59 57 60 60 60 58 59 59 58 58 57 56 57 57 54 54 52 53 55 55 59 56 52 49 45 45 45

GFSCGP_sfc_30mbdewp_015.txt.gz
Dewpoint
11 13 14 15 19 23 31 36 42 44 46 47 48 50 50 53 53 53 54 54 55 55 57 59 61 61 63 66 68 69 69 70 70 71 70 70 70 70 70 70 70 70 70 70
11 11 13 15 22 24 23 34 39 38 44 46 49 50 49 51 52 53 53 54 54 55 57 58 60 61 62 64 66 68 68 69 70 70 70 69 69 69 69 70 70 71 70 70
8 10 15 18 26 26 24 24 34 35 42 46 48 48 50 51 51 52 52 54 54 56 57 58 60 61 62 63 64 66 68 69 71 71 70 70 71 70 69 67 69 70 70 70
7 9 14 23 21 26 24 24 26 36 38 37 47 41 48 50 51 52 53 54 54 56 57 58 60 61 63 63 65 65 68 68 70 71 70 69 69 67 65 65 63 62 64 64
7 10 12 15 20 26 24 23 22 34 35 38 43 38 43 48 48 51 52 53 55 56 58 58 60 61 63 63 65 67 68 69 70 70 70 70 68 65 63 62 59 61 61 62
6 12 14 12 16 24 24 20 20 29 34 34 41 38 37 45 47 48 50 50 55 57 59 59 60 61 62 64 66 68 68 69 70 70 70 69 67 61 62 60 58 57 58 64
8 8 10 18 17 20 20 17 15 25 31 32 35 38 35 42 47 47 48 48 53 56 59 60 60 61 62 64 66 67 68 69 70 70 68 67 64 59 60 59 57 60 61 63
5 3 7 11 15 17 16 17 16 12 16 26 23 35 36 39 42 47 47 47 51 54 58 60 61 62 62 64 66 67 68 68 69 68 66 61 58 57 58 57 58 60 61 62
11 10 14 13 13 17 16 14 16 14 22 19 21 25 25 33 36 44 45 44 49 52 57 60 61 62 61 63 66 67 68 68 68 65 62 58 57 57 57 59 61 58 59 61
12 10 12 12 15 15 13 16 14 18 11 13 18 19 18 21 30 40 44 43 48 51 55 58 61 61 62 64 65 67 68 68 68 64 61 58 57 58 59 61 61 59 60 61
12 11 10 14 13 12 16 13 16 16 18 12 12 16 26 25 31 41 44 44 46 50 53 55 58 59 61 64 65 66 68 68 66 64 61 58 58 59 62 61 61 61 61 60
12 11 8 9 13 14 13 12 13 11 14 20 18 17 30 32 37 42 42 44 48 50 52 54 56 57 58 62 64 66 68 67 66 64 61 59 59 60 61 61 61 60 60 61
13 10 8 8 10 16 15 17 17 19 20 19 16 18 35 35 36 43 43 45 46 48 51 54 55 56 57 60 63 66 68 67 65 64 61 60 59 61 60 61 61 61 60 60
16 11 8 7 9 12 13 15 21 18 15 17 21 19 31 32 33 39 43 46 46 46 49 52 54 55 56 58 62 66 68 67 65 63 62 60 61 62 62 62 61 61 60 60
14 11 11 10 9 13 13 14 19 19 16 16 17 22 28 31 34 37 40 42 45 47 47 51 52 54 55 57 62 67 68 67 66 63 62 60 62 63 62 62 61 61 60 60
20 11 14 11 12 11 10 13 16 17 20 20 20 25 33 33 37 35 35 39 42 47 50 52 53 54 55 59 63 67 67 67 66 64 62 62 63 62 60 60 60 61 60 60
19 15 12 10 15 16 15 17 16 19 22 21 20 22 35 35 36 35 36 40 41 44 50 52 53 54 55 60 64 66 66 67 66 64 63 64 63 63 62 61 60 60 60 60
32 18 17 10 15 10 14 29 22 30 36 37 34 26 33 33 36 38 38 38 39 41 44 50 53 55 56 55 62 65 66 66 66 63 64 64 63 63 62 60 60 60 60 60
41 24 23 15 14 19 32 38 39 35 32 39 37 39 38 39 39 38 38 38 37 38 40 40 44 53 58 61 61 64 64 65 65 63 64 65 64 62 62 60 60 60 61 60
40 38 26 28 15 17 36 43 47 45 29 40 42 39 40 39 35 36 43 40 40 41 43 44 47 53 56 60 63 63 63 64 64 63 63 63 63 62 62 61 61 61 61 60
40 41 34 34 31 36 43 47 46 29 33 44 44 42 41 38 42 46 45 45 46 46 47 52 55 53 57 63 63 62 62 63 63 63 63 62 62 61 62 62 62 62 61 60
42 42 41 41 33 31 45 44 38 43 43 43 44 45 43 43 43 43 45 43 44 46 50 57 57 61 63 63 62 61 61 62 62 62 62 61 62 63 62 61 58 55 57 60
37 44 43 45 40 47 51 47 49 48 45 45 43 44 46 49 49 50 48 47 52 57 58 60 61 61 62 62 62 61 61 61 61 60 59 59 58 60 60 59 52 52 54 60
47 50 44 46 45 46 47 49 50 47 42 41 44 45 43 44 52 55 56 57 57 59 59 60 61 60 59 59 59 59 60 60 60 59 57 55 55 56 57 57 57 57 59 59
47 49 48 48 48 46 44 45 45 43 42 40 40 40 41 42 44 54 56 59 60 59 60 60 59 59 58 58 58 59 59 60 58 56 55 54 55 57 57 54 53 57 55 55
49 47 45 44 46 43 43 45 42 38 38 38 38 37 39 39 40 44 50 57 61 60 60 59 59 58 57 58 58 57 57 55 53 51 54 56 56 56 57 54 50 46 45 46

GFSCGP_sfc_30mbdewp_021.txt.gz
Dewpoint
19 12 9 18 31 31 36 37 38 45 47 46 46 47 50 56 57 57 59 60 60 61 62 64 65 66 67 68 68 69 69 71 72 71 70 70 70 70 71 72 72 72 70 70
17 11 12 16 25 35 38 37 37 43 47 45 45 45 49 53 56 57 58 59 60 61 62 64 65 65 66 67 68 69 70 71 72 71 70 70 70 71 71 71 72 72 72 72
12 10 16 17 20 22 36 37 39 38 44 47 45 43 46 52 54 55 56 56 58 59 60 61 62 64 65 66 68 69 70 71 71 71 71 72 71 71 70 70 71 71 72 72
10 11 11 16 18 22 23 38 40 40 41 38 45 36 43 48 52 53 53 54 55 56 58 58 60 62 63 65 67 69 70 71 71 72 70 70 68 67 68 69 69 71 72 71
18 9 14 9 16 23 23 33 36 39 39 40 43 40 37 49 49 50 52 53 54 54 55 56 58 59 62 64 65 67 70 71 71 72 71 70 69 69 69 68 68 69 70 71
19 14 12 14 17 24 27 29 34 39 37 36 36 40 32 43 47 47 49 52 53 53 54 55 57 59 61 63 64 66 69 70 71 71 71 71 70 70 68 67 66 66 66 65
19 17 15 14 15 25 24 26 25 27 33 27 32 40 36 37 43 45 46 50 52 53 53 55 56 58 61 62 64 65 68 69 70 70 71 71 71 71 69 68 65 64 63 62
20 15 16 14 13 19 23 20 21 22 23 24 34 34 35 41 41 44 47 48 51 52 54 55 57 59 61 62 64 65 66 67 69 69 71 71 71 70 69 69 65 63 62 61
20 18 13 13 15 22 22 21 22 21 22 23 26 34 34 38 38 40 42 45 49 52 54 54 56 59 60 62 64 65 66 67 68 68 70 71 71 70 69 68 66 63 62 62
19 16 12 9 14 18 19 21 17 19 19 17 20 24 19 28 31 37 40 42 46 50 53 55 56 59 61 62 64 65 66 67 68 68 69 70 70 70 70 67 63 63 63 63
22 13 13 14 9 9 16 17 20 20 20 19 18 18 28 26 29 29 32 38 41 47 52 54 58 59 61 62 63 64 66 67 68 69 69 70 69 69 65 64 62 62 64 64
21 20 17 11 12 13 9 13 17 17 22 19 18 17 26 29 29 33 31 34 42 47 50 54 57 59 60 62 62 63 65 65 67 68 69 69 68 64 65 62 62 63 63 63
18 17 17 18 17 15 13 12 14 15 15 21 16 16 30 30 33 34 35 39 47 50 52 54 56 59 61 62 63 63 64 64 65 67 68 68 64 64 63 62 63 63 63 63
21 23 19 16 18 16 14 14 15 13 13 14 19 16 20 22 29 32 40 42 47 51 52 54 57 60 62 63 64 65 64 64 65 67 67 66 64 65 63 63 62 62 60 62
34 31 28 26 21 18 15 11 12 15 15 13 13 21 20 24 25 30 38 44 49 50 52 55 56 59 62 64 65 65 65 66 66 68 67 66 65 64 64 64 63 60 61 60
31 27 28 27 26 19 16 15 12 14 12 17 14 23 27 30 36 36 37 42 47 50 51 54 56 58 60 62 63 64 65 66 68 68 67 67 65 65 63 63 62 61 61 61
37 27 23 20 22 18 15 16 15 16 17 19 17 22 28 28 33 34 32 42 44 49 50 52 55 59 60 60 62 63 65 67 68 68 68 66 65 65 63 61 62 62 62 62
39 35 28 26 20 15 17 18 17 16 17 21 18 27 32 32 35 40 44 44 46 48 51 52 53 56 59 59 60 63 65 68 68 68 67 66 65 65 64 62 61 62 63 61
44 39 35 29 25 21 29 36 21 14 17 26 29 31 38 39 38 40 43 42 46 49 53 53 53 55 57 59 62 65 67 68 68 67 66 66 65 65 64 62 62 62 63 62
44 43 37 34 25 21 28 43 46 45 22 41 44 42 43 41 32 36 45 44 46 49 53 55 57 58 59 60 64 65 66 67 67 67 66 66 65 65 63 62 62 63 63 62
41 44 38 37 31 30 46 47 47 30 29 46 46 45 44 42 46 49 49 50 51 51 53 56 58 59 62 63 63 64 66 66 67 67 67 66 65 64 64 64 64 64 64 63
39 40 43 42 36 29 47 46 41 45 48 47 47 47 48 50 52 54 55 57 58 59 59 60 62 63 64 65 65 65 65 67 68 67 66 66 66 64 64 64 64 64 64 64
38 43 44 44 42 47 47 49 49 48 48 49 52 53 54 53 54 55 56 57 58 59 60 60 61 63 64 65 65 64 64 66 66 67 66 66 65 65 65 64 64 64 64 64
48 49 44 44 43 44 44 44 43 43 44 44 45 48 49 52 53 56 57 58 59 60 60 61 61 61 61 64 64 64 65 66 66 65 65 65 65 65 65 64 64 63 62 61
46 50 47 48 47 47 44 46 45 44 43 43 44 45 50 55 58 59 59 60 60 61 61 62 62 62 62 63 64 64 65 64 64 64 64 64 63 63 60 56 56 58 59 56
46 48 45 44 48 49 45 48 46 44 45 45 43 43 46 48 54 57 59 60 61 61 62 62 62 62 62 62 63 63 63 63 63 62 61 61 60 58 57 55 53 45 46 49

GFSCGP_sfc_30mbdewp_024.txt.gz
Dewpoint
12 12 11 15 20 27 28 29 28 32 43 44 42 43 45 51 51 51 52 54 54 56 57 60 62 63 64 65 66 67 68 68 70 70 68 67 67 69 69 69 70 70 70 69
11 10 14 17 19 23 25 28 28 34 43 43 40 42 44 46 51 51 51 53 54 55 57 59 61 62 63 65 66 68 69 70 71 70 69 67 67 67 67 68 70 71 71 70
10 5 12 13 18 23 27 29 28 33 42 43 39 39 41 42 47 52 52 51 53 55 55 57 60 61 62 64 67 68 69 70 71 70 70 70 70 70 69 68 68 69 71 70
9 6 9 11 14 21 25 29 30 33 38 35 41 31 34 39 45 49 52 51 51 54 56 56 58 60 62 63 66 68 70 71 71 72 70 69 67 64 63 64 64 65 69 69
10 8 9 10 10 18 22 25 30 32 35 34 37 37 34 38 41 44 49 50 49 50 51 53 55 57 60 62 64 67 69 71 71 72 72 69 69 65 66 66 68 68 69 70
13 14 7 7 8 11 21 24 28 29 31 30 32 34 32 34 41 40 45 49 48 47 49 50 52 54 57 60 62 64 69 72 72 71 72 71 69 68 65 67 67 63 63 67
16 13 9 7 6 8 18 23 27 27 27 27 31 31 32 31 32 37 36 44 48 48 47 49 50 51 54 57 60 62 68 72 72 71 71 72 71 70 69 69 68 61 60 61
16 11 13 9 7 9 13 21 23 22 22 26 30 27 29 35 35 33 32 38 44 49 49 49 52 53 55 57 61 63 67 71 71 70 71 72 72 70 70 70 66 63 58 60
14 14 12 11 9 9 14 19 23 22 23 23 23 28 30 30 33 32 33 35 41 46 49 50 52 54 56 59 62 65 68 71 71 69 72 72 72 71 68 69 70 66 63 60
17 16 13 13 11 9 13 19 20 22 21 20 21 22 24 27 28 28 27 31 35 41 47 49 51 53 56 58 61 64 68 70 70 68 70 70 70 71 71 71 71 66 65 63
19 18 14 14 12 8 9 16 20 21 20 20 20 19 23 24 25 23 23 24 27 33 43 48 51 53 57 58 60 63 66 67 68 69 70 70 69 70 72 71 70 68 66 66
20 20 17 12 9 9 10 15 20 21 22 22 21 20 22 24 25 24 23 23 24 29 37 44 50 53 54 58 59 61 63 65 67 68 70 70 70 70 71 70 69 67 65 65
22 22 20 15 8 7 7 12 15 21 21 23 21 22 24 23 26 27 28 30 30 45 46 46 50 53 55 58 61 60 62 63 64 66 67 69 69 70 69 69 66 64 63 63
22 24 22 18 13 9 9 8 10 13 18 19 20 23 23 21 23 23 26 27 30 39 49 50 51 54 57 59 63 63 61 62 63 64 66 69 70 70 68 68 66 62 62 63
17 22 23 21 18 16 14 10 7 7 10 13 16 19 22 24 23 22 22 21 25 43 50 52 53 55 59 61 63 64 63 63 63 64 65 68 71 69 68 69 66 64 63 62
27 28 29 26 22 19 17 16 14 10 9 10 12 15 18 22 23 23 22 22 27 39 49 52 55 56 59 61 63 64 64 64 65 65 66 69 70 68 69 69 67 64 63 63
24 25 29 26 26 24 21 19 17 16 13 8 9 13 15 16 19 22 27 27 30 31 45 51 54 56 59 61 64 64 65 65 67 67 69 69 70 69 68 68 67 65 62 60
31 33 28 27 25 22 23 22 21 19 17 14 10 12 13 17 21 22 32 31 34 35 38 48 52 55 59 60 63 64 65 67 68 69 69 69 70 68 68 68 67 65 62 61
30 37 29 28 26 24 23 23 25 21 20 19 14 15 16 19 26 33 38 39 41 41 43 48 52 55 59 59 62 64 65 67 68 69 69 69 68 68 68 67 66 65 63 62
31 37 36 32 27 24 38 43 45 43 27 21 19 19 19 20 24 30 36 45 43 44 48 53 53 55 59 59 62 64 65 67 67 68 68 68 68 68 68 67 67 66 64 64
37 37 34 31 29 29 45 44 45 30 29 46 25 21 20 24 28 46 48 48 49 51 54 55 56 57 60 61 63 65 66 66 67 67 68 68 68 68 68 67 66 65 64 63
35 34 30 31 32 30 46 44 38 48 50 47 47 45 41 42 50 51 53 54 55 57 57 59 61 62 62 64 65 65 65 67 68 68 68 68 68 67 67 66 65 65 64 64
33 33 30 38 37 46 46 49 48 49 51 53 49 49 49 49 51 53 54 56 56 57 57 60 62 64 65 66 66 66 68 69 68 68 68 68 67 67 66 65 65 65 65 64
46 46 41 43 46 46 45 45 45 46 47 49 52 51 51 50 51 51 52 53 55 55 56 57 60 63 65 66 67 67 68 68 68 67 67 67 66 66 66 66 65 65 65 64
47 49 45 44 46 44 46 47 44 43 44 45 48 51 54 55 56 57 58 58 58 60 61 61 62 64 65 66 66 67 67 67 67 66 66 65 66 65 62 58 56 61 58 58
46 47 43 40 44 45 48 48 46 47 45 46 45 47 47 48 50 54 58 60 61 62 62 63 63 64 65 65 66 66 67 66 65 65 64 63 63 62 61 59 55 48 49 51

GFSCGP_sfc_30mbdewp_027.txt.gz
Dewpoint
14 10 13 19 21 25 28 29 29 31 31 38 38 38 42 47 48 45 46 47 48 49 53 55 57 57 59 61 63 65 66 69 68 67 67 66 66 68 68 67 70 70 70 70
12 9 11 19 19 23 25 27 27 26 34 34 37 37 39 45 47 46 46 46 46 47 50 54 57 57 59 61 64 66 68 70 70 68 68 65 65 63 66 65 65 69 68 70
4 4 8 17 19 21 23 25 27 24 37 37 36 36 37 40 44 48 47 46 47 47 48 53 56 58 59 61 64 68 70 71 72 71 69 68 68 66 65 61 62 63 67 65
4 6 7 13 17 20 20 25 25 24 36 33 34 31 35 36 39 43 47 48 46 47 48 50 55 57 58 60 64 68 71 72 72 73 69 68 66 62 60 61 60 61 64 64
6 4 6 10 14 19 21 23 25 26 30 35 30 30 30 33 35 37 44 47 47 47 48 48 51 55 58 59 61 66 71 73 73 73 71 68 67 62 61 61 65 65 67 65
11 10 6 6 12 16 20 22 25 26 26 28 31 34 29 36 34 36 40 44 47 46 48 50 50 52 56 58 60 63 70 73 74 74 74 73 70 67 63 62 64 63 61 64
13 11 6 6 9 13 17 20 21 21 22 23 33 32 39 31 35 35 34 37 44 47 46 48 49 50 54 57 60 62 69 73 75 74 73 73 73 72 70 67 65 63 58 59
13 12 11 8 7 10 14 17 20 19 19 21 24 28 28 32 32 34 33 33 38 46 47 46 48 49 52 56 60 62 66 72 74 74 74 74 75 70 69 69 65 63 58 57
14 14 13 11 8 6 11 15 17 19 20 21 21 24 27 32 31 32 33 31 31 41 45 47 47 49 49 54 59 62 65 71 74 73 75 74 74 73 68 68 71 66 63 58
15 14 15 10 9 4 6 13 15 18 18 20 19 21 25 29 29 31 31 29 27 31 40 45 47 49 51 52 57 62 65 71 73 73 74 73 74 74 73 72 71 69 66 62
14 14 14 14 10 8 4 6 13 16 18 18 19 22 24 28 29 28 28 27 25 27 33 41 47 49 53 53 55 60 65 69 72 72 72 72 73 72 73 71 72 71 70 67
14 15 16 15 14 11 9 5 9 19 20 20 19 18 23 22 27 27 26 25 24 24 27 34 42 47 51 56 55 57 61 65 69 70 72 72 73 72 72 72 72 73 71 69
15 15 16 18 16 14 11 10 5 9 17 21 21 20 23 24 24 25 25 25 26 28 34 37 36 44 50 56 58 57 60 60 64 69 70 72 73 72 72 73 72 72 71 69
21 16 18 17 18 13 12 10 7 5 12 18 20 22 22 23 25 25 26 26 26 27 31 43 43 37 50 55 60 61 60 59 61 64 67 70 73 73 72 73 73 72 71 68
20 21 18 17 19 18 10 8 6 6 8 12 17 20 23 24 24 26 26 26 26 24 27 44 49 47 55 57 62 63 62 62 61 65 67 70 73 73 73 73 72 72 70 67
19 21 23 22 20 20 18 8 6 5 7 10 12 15 21 24 25 27 25 25 25 25 25 40 50 51 55 58 62 65 64 64 65 66 67 70 73 73 73 72 72 71 68 65
19 19 20 21 21 20 17 17 14 12 10 7 7 12 16 17 20 23 31 28 28 27 26 26 48 54 57 59 63 65 66 66 66 68 68 71 73 73 73 71 71 71 68 66
20 23 24 22 24 21 21 20 17 16 16 16 14 12 12 14 18 23 26 26 28 29 28 30 40 53 56 58 61 64 65 67 68 69 70 72 72 72 72 71 71 71 69 66
21 23 22 22 23 25 22 23 21 20 20 20 19 19 17 15 13 17 21 24 29 31 32 33 26 47 56 59 63 66 67 68 69 70 71 71 72 71 71 69 70 70 69 67
27 30 28 26 22 20 23 38 40 36 25 27 26 28 20 19 13 18 21 19 23 28 29 31 35 42 55 60 61 66 67 69 69 70 71 71 71 70 69 69 69 70 69 68
24 27 27 29 27 25 42 40 39 28 29 46 45 42 38 31 20 20 29 29 37 37 42 44 48 49 60 62 64 66 66 67 68 69 69 70 70 70 69 70 70 69 67 66
24 26 23 26 26 32 45 41 34 44 50 50 47 45 43 44 28 23 45 47 49 48 49 50 53 55 61 64 67 67 68 70 69 69 68 69 70 69 69 69 68 67 66 66
23 26 24 27 28 45 46 49 48 48 49 51 49 47 46 44 43 47 51 52 53 55 55 55 57 62 63 67 69 68 70 70 69 69 70 70 69 68 68 67 67 66 66 65
27 29 32 42 46 46 45 46 47 48 49 50 50 48 48 48 49 52 55 56 57 59 61 63 63 64 66 68 69 70 70 71 70 69 69 68 68 68 67 66 66 65 65 65
47 46 41 45 46 46 45 45 46 47 50 52 54 54 55 54 53 54 55 56 55 57 60 62 64 65 66 67 68 69 69 69 68 67 67 67 67 66 65 59 59 65 62 60
48 47 47 43 46 46 47 48 47 47 47 49 49 50 51 55 58 59 59 60 60 61 61 64 65 66 67 67 67 68 68 68 67 66 66 65 65 64 63 61 56 50 52 53

GFSCGP_sfc_30mbdewp_030.txt.gz
Dewpoint
18 15 14 13 17 20 20 25 26 33 43 32 41 47 49 47 44 41 41 44 46 48 51 53 55 57 58 61 65 67 68 68 72 71 70 69 69 70 70 69 72 71 71 70
16 14 10 14 16 21 21 24 28 34 42 39 34 47 50 48 42 42 42 42 44 46 49 53 56 57 58 61 65 68 69 72 71 70 71 69 69 69 70 70 71 70 72 72
12 10 8 10 14 20 20 23 26 31 36 34 32 32 36 42 44 43 43 44 44 45 46 53 55 57 58 62 66 68 70 72 70 71 69 70 70 71 69 70 69 73 72 72
13 10 7 6 12 18 18 21 24 29 31 31 33 29 35 37 44 43 42 43 45 45 46 48 54 58 58 61 66 69 71 71 72 72 71 69 67 67 64 63 64 69 70 68
13 9 6 4 6 15 18 21 22 24 29 33 37 34 35 39 38 42 41 43 43 46 46 46 52 56 58 61 65 69 72 72 73 72 72 71 68 65 67 65 67 67 68 66
13 11 6 4 4 11 17 19 20 22 23 27 35 32 35 37 38 38 39 39 46 44 46 47 49 55 58 60 63 67 72 73 73 74 73 73 69 68 66 65 70 67 69 67
13 12 9 4 4 7 12 17 19 19 21 21 28 36 37 36 39 38 40 41 45 47 46 48 49 51 58 59 61 66 72 73 74 74 74 73 73 71 68 70 69 66 64 66
14 12 10 9 5 5 9 13 18 19 20 22 23 24 35 39 40 42 44 43 42 45 47 49 51 51 57 59 61 64 71 73 74 74 74 74 73 73 72 70 70 66 65 63
13 13 13 10 8 4 6 10 14 17 20 20 21 23 26 33 37 42 42 37 38 42 46 47 52 53 54 59 61 63 70 72 74 75 75 75 75 73 72 71 70 70 66 69
15 13 13 12 11 6 5 11 10 12 17 19 20 22 25 35 37 37 37 36 37 38 44 46 47 52 54 57 61 64 67 73 74 75 75 75 75 75 73 72 72 69 70 67
14 16 13 14 13 9 7 4 7 11 16 17 19 21 26 29 38 36 36 34 34 30 40 45 47 49 53 55 59 63 65 71 73 75 75 75 75 75 74 72 72 72 71 68
13 14 16 13 15 13 9 9 7 9 18 16 17 19 22 32 35 36 33 33 33 31 30 35 47 49 52 53 56 60 63 65 71 74 74 75 75 75 75 73 73 73 72 71
17 14 15 14 13 15 11 9 5 4 6 18 17 18 23 28 34 34 31 31 33 36 34 35 43 49 52 54 55 57 61 63 67 72 73 74 74 74 74 74 72 73 73 72
19 15 16 14 16 15 15 12 10 7 5 8 16 20 22 28 32 33 30 31 31 32 38 39 40 46 52 55 56 58 59 62 65 70 71 72 74 74 74 74 74 73 74 73
18 19 19 16 14 16 15 14 11 10 12 11 9 19 21 24 31 29 33 31 32 32 36 42 44 47 51 57 59 59 60 61 63 67 70 72 74 74 74 74 74 74 74 73
18 20 20 20 14 14 16 17 14 14 12 12 12 11 16 25 27 35 30 33 33 34 33 42 50 52 53 59 62 61 61 61 62 65 68 70 72 74 74 74 74 74 73 73
20 19 23 21 21 17 16 19 18 13 13 12 11 15 19 20 24 30 33 31 37 36 34 37 51 55 57 60 63 63 63 64 63 66 67 69 72 74 74 74 74 74 73 72
25 24 23 22 23 19 20 18 19 19 14 9 10 13 16 20 23 24 27 33 35 37 34 36 34 52 58 58 60 66 65 66 66 67 68 70 73 74 74 74 74 73 73 71
20 25 20 23 21 20 21 21 20 18 21 19 16 18 16 14 16 19 22 25 30 33 38 41 36 33 55 57 60 64 67 66 67 68 71 72 73 74 74 74 73 73 73 70
18 29 26 23 20 17 22 21 23 23 23 26 22 23 24 30 23 21 25 24 24 26 29 37 37 35 40 58 60 66 66 68 67 70 70 73 74 74 74 73 72 73 73 70
18 22 20 22 23 22 24 26 33 29 34 45 42 39 37 36 39 45 43 34 24 29 30 32 37 44 53 60 61 66 68 69 69 71 73 74 74 74 74 72 71 71 71 70
27 24 21 25 25 23 33 37 33 45 49 49 48 46 44 44 42 41 44 37 45 49 47 44 48 50 63 63 67 69 70 72 72 72 73 73 74 72 72 71 70 70 69 68
28 25 26 28 29 45 47 49 50 48 47 49 48 46 44 44 43 39 50 51 51 52 54 55 52 64 67 71 71 70 73 72 72 72 72 72 71 71 71 70 70 68 67 66
40 46 39 29 31 43 45 45 47 48 49 49 49 47 46 45 44 47 53 55 55 57 60 61 65 68 70 71 72 73 73 72 71 71 72 72 70 70 69 68 67 66 65 66
48 46 45 43 45 46 46 46 47 48 50 52 55 55 57 59 59 59 61 61 59 62 65 66 68 69 70 72 72 72 72 72 71 71 70 69 68 67 62 57 58 65 60 62
47 46 44 45 49 50 47 47 49 49 50 52 54 56 59 59 59 60 61 63 65 66 67 68 68 69 70 70 69 70 71 71 70 68 67 67 66 63 60 59 56 52 52 53

GFSCGP_sfc_30mbdewp_033.txt.gz
Dewpoint
18 20 18 17 14 15 18 19 19 29 39 43 45 43 40 41 43 44 48 49 50 51 52 55 56 59 62 64 66 65 66 71 70 71 70 70 70 69 70 71 71 71 71 70
19 17 19 18 16 14 16 17 20 39 38 37 44 42 43 40 42 45 45 48 48 50 51 55 55 57 60 63 66 66 67 71 70 71 71 70 69 69 68 70 72 71 71 70
18 16 17 17 15 15 15 17 20 35 38 40 38 43 45 39 42 46 46 47 48 49 50 53 55 57 59 62 66 67 68 71 71 72 71 70 71 70 70 71 71 71 70 71
18 17 16 15 12 13 14 17 21 36 36 37 39 40 46 44 45 46 46 43 46 48 50 52 55 57 59 63 67 68 70 71 71 71 70 69 67 68 69 69 70 70 71 71
16 17 15 12 11 9 13 19 22 21 33 37 36 38 43 48 47 46 44 43 43 46 48 52 55 56 59 63 66 69 69 72 70 70 70 68 68 68 68 67 69 70 71 71
17 18 16 13 10 7 9 15 18 20 24 33 33 39 36 37 45 45 43 43 44 44 46 49 53 57 57 62 66 69 69 70 71 69 70 71 70 66 64 67 68 69 67 69
15 14 15 14 8 8 6 6 12 16 19 21 35 34 36 36 37 45 44 43 43 45 45 46 52 55 58 60 66 69 70 70 72 71 71 71 72 69 67 69 68 67 65 65
18 13 13 14 9 5 4 3 9 15 18 20 26 35 35 36 38 42 44 44 44 45 46 46 48 54 58 59 64 69 70 70 71 72 71 71 71 73 70 70 70 67 67 65
18 17 16 13 13 6 8 3 8 12 18 21 22 23 33 37 41 42 39 40 41 43 47 48 48 52 57 59 64 67 70 70 72 72 72 71 71 71 73 72 69 70 67 67
16 18 18 17 13 12 4 10 5 7 8 14 18 22 26 36 41 41 39 42 44 45 44 50 49 50 57 59 61 66 71 71 72 72 73 73 73 72 72 73 71 69 69 70
12 15 18 18 13 10 10 5 6 10 11 12 16 19 25 33 41 43 42 42 42 42 44 48 50 51 57 59 61 63 70 71 72 72 72 73 73 74 73 72 72 71 69 70
13 14 15 17 19 13 11 7 5 7 13 17 12 14 24 26 41 41 42 42 43 43 44 44 49 52 54 59 60 63 70 71 72 73 73 73 73 74 74 73 71 71 70 70
16 14 13 15 15 16 11 11 8 5 10 10 15 16 17 24 39 43 43 41 41 40 40 41 47 52 54 58 61 62 68 71 72 73 73 74 74 74 75 74 73 72 71 71
31 14 12 12 15 17 17 13 12 6 4 6 6 9 16 27 32 36 39 34 35 41 38 43 47 50 53 55 60 62 64 69 71 73 73 73 74 74 74 75 73 73 73 71
18 19 17 14 17 18 16 17 12 10 9 7 6 7 13 16 32 36 37 35 34 37 42 42 48 51 53 54 58 61 63 64 69 71 72 73 74 74 74 74 74 72 73 72
30 25 24 21 17 14 14 15 15 12 11 11 11 14 21 21 34 35 38 34 37 40 43 44 48 53 55 55 57 59 61 63 64 69 71 72 72 74 74 74 74 74 72 73
29 26 25 19 22 21 20 14 14 18 16 14 12 14 17 16 21 30 36 35 30 31 41 43 47 50 54 57 57 58 59 61 63 64 68 71 72 73 74 74 73 74 72 74
28 26 27 22 22 18 23 21 17 18 21 21 16 17 19 20 24 36 37 34 36 39 37 42 48 51 54 63 60 59 60 60 63 65 67 70 71 73 74 74 74 74 73 73
26 25 25 22 21 21 23 24 22 19 19 23 24 21 18 19 20 17 27 27 24 32 35 42 48 53 56 63 64 62 61 63 62 65 66 69 71 72 73 73 74 74 73 72
23 23 26 23 20 17 24 26 25 25 23 38 35 26 21 19 17 25 43 42 35 32 31 33 38 38 57 58 66 64 63 64 64 63 67 69 71 72 74 74 74 73 73 71
22 23 24 23 19 21 28 23 23 22 29 47 45 45 43 42 46 45 45 45 44 39 33 26 28 33 49 59 64 67 65 64 68 67 72 72 73 74 74 74 73 73 71 70
34 33 28 24 26 25 38 31 37 49 50 49 48 47 45 45 44 43 52 52 53 54 55 54 46 48 51 54 64 65 67 68 69 72 74 75 75 74 73 72 72 72 71 69
33 38 40 37 33 45 49 48 49 50 51 49 49 46 45 45 44 54 55 55 53 54 55 57 65 69 71 67 65 67 71 72 73 74 74 74 73 73 71 70 70 70 69 68
43 46 43 42 45 48 40 46 48 49 50 56 59 59 59 60 61 62 62 61 63 64 67 69 69 69 71 73 73 74 73 73 73 73 72 71 71 70 70 69 68 68 66 66
46 47 45 45 47 50 52 51 48 48 58 60 60 60 61 62 63 63 64 66 67 68 70 70 71 72 73 73 73 73 73 72 72 71 70 69 67 64 62 60 63 65 63 65
47 46 44 44 49 52 51 50 51 56 56 57 59 60 61 62 63 63 63 66 67 67 69 70 71 71 72 72 72 72 72 71 70 68 68 65 63 62 60 59 56 49 52 55

GFSCGP_sfc_30mbdewp_039.txt.gz
Dewpoint
29 26 24 23 23 20 20 18 17 20 20 38 36 41 53 54 54 56 58 58 58 57 58 60 62 63 64 64 65 66 66 67 68 68 69 69 67 67 70 69 69 70 71 71
22 25 26 25 22 19 17 16 15 19 30 37 38 42 52 53 52 53 54 55 56 55 57 60 60 62 63 63 64 65 66 66 67 67 68 69 68 68 68 70 69 70 70 71
20 20 23 22 21 19 17 16 15 15 33 43 42 40 48 52 52 54 54 54 54 54 54 56 59 62 62 63 64 65 66 66 67 67 68 69 69 69 69 69 70 70 70 70
16 19 17 19 19 21 19 18 16 15 20 26 40 36 42 47 49 51 53 54 54 54 54 55 59 61 62 62 64 65 66 66 67 67 67 66 66 66 68 69 69 70 71 71
15 15 14 16 17 20 19 19 17 16 17 20 27 34 38 42 44 45 47 52 53 54 54 54 55 59 62 62 63 65 66 67 67 68 67 67 66 67 67 68 68 69 70 71
15 19 14 13 18 18 19 17 15 17 19 19 20 33 34 41 41 41 43 47 51 52 53 54 54 57 60 61 62 65 65 67 68 68 68 68 67 67 67 67 67 68 70 70
16 14 19 17 15 18 16 15 12 10 11 12 16 29 29 36 42 41 42 44 47 51 51 52 52 54 57 60 61 63 65 66 68 69 69 68 68 67 66 66 67 68 69 70
17 18 16 18 18 17 16 14 11 8 9 9 19 18 19 32 38 44 44 44 45 48 50 51 52 52 55 59 61 63 64 65 68 69 69 69 68 67 67 66 66 67 68 69
19 19 21 20 17 17 14 13 14 9 18 12 17 23 30 32 36 39 43 45 44 46 48 49 51 51 53 56 60 63 64 65 67 69 69 69 68 68 67 66 67 67 68 68
20 18 21 19 17 17 16 11 9 7 7 5 6 15 20 30 33 38 41 45 45 46 46 47 49 51 53 55 58 62 64 65 66 68 68 69 68 68 68 68 67 67 67 67
18 18 16 20 18 14 14 14 8 9 6 5 3 5 16 25 30 34 39 44 46 46 47 46 47 49 51 54 57 61 64 64 65 67 67 68 68 69 69 69 69 68 67 66
27 15 16 17 18 19 15 13 12 7 5 7 5 5 20 15 16 29 34 40 45 47 47 46 46 47 50 53 57 61 63 65 65 67 67 67 67 68 69 70 71 70 67 67
37 25 12 10 13 15 17 17 12 11 8 7 6 6 10 14 24 32 32 40 43 47 46 46 45 45 47 52 56 60 63 65 65 66 67 68 68 68 67 68 69 72 70 68
34 28 23 13 11 13 13 16 16 11 9 9 9 10 13 15 14 22 35 41 43 46 46 46 46 46 47 51 56 59 63 64 65 66 67 67 68 68 67 67 67 70 71 69
31 29 27 25 25 23 16 13 14 13 13 11 11 8 9 14 19 20 25 40 43 45 45 46 47 48 49 50 56 57 62 65 65 66 67 67 68 69 69 68 67 68 69 70
30 29 29 27 23 21 19 15 14 14 15 11 10 9 10 10 13 14 15 31 40 43 44 44 45 48 49 50 55 57 59 64 67 66 67 68 68 69 70 70 70 69 68 69
26 31 29 25 24 23 17 15 15 15 16 15 11 10 10 9 11 11 12 20 34 41 43 43 43 44 47 49 53 56 58 62 67 67 68 69 69 69 70 71 71 71 70 69
26 30 30 27 26 17 19 17 16 15 16 16 13 13 12 11 12 15 19 19 30 37 42 41 42 43 43 45 51 55 58 60 66 67 68 69 70 69 70 71 71 72 72 71
28 27 28 26 25 24 23 21 18 15 16 20 16 16 15 16 19 20 27 29 30 33 39 41 43 44 45 46 52 57 59 61 65 67 68 70 70 70 71 71 71 72 72 72
27 27 29 26 23 19 31 47 48 38 14 18 20 19 19 22 16 16 22 30 30 34 38 37 43 49 51 53 56 58 60 61 63 66 68 69 70 71 71 72 72 72 72 71
25 26 28 29 25 25 47 48 48 24 23 40 33 21 22 22 21 21 27 36 32 35 37 38 43 50 52 54 55 57 60 61 62 64 67 69 70 71 71 72 72 72 72 72
31 30 32 32 29 25 48 48 44 47 50 51 45 36 26 25 28 35 42 46 43 39 34 34 43 47 53 58 56 55 57 59 61 63 64 66 69 70 71 71 72 73 73 72
31 37 35 31 31 46 49 50 51 52 51 52 53 44 41 43 46 49 50 53 52 53 58 51 37 37 41 55 61 56 57 58 59 61 63 64 66 69 70 71 72 73 72 71
36 40 36 36 43 47 49 50 51 52 54 61 62 54 52 54 57 57 60 61 61 64 65 67 66 66 68 70 63 64 64 63 61 61 61 63 64 67 70 72 72 72 72 71
36 41 37 34 45 46 47 49 51 52 53 59 61 61 63 63 64 65 66 66 68 69 69 70 69 69 70 70 71 72 69 66 64 65 64 65 67 68 62 55 55 65 65 70
40 43 40 37 44 46 49 51 53 52 52 54 56 58 58 60 63 64 64 66 67 67 68 68 69 69 69 68 68 69 71 71 71 71 71 69 64 62 60 61 60 59 59 64

GFSCGP_sfc_30mbdewp_042.txt.gz
Dewpoint
33 30 26 24 22 22 26 21 22 20 23 38 38 40 52 55 57 57 57 57 59 60 61 62 63 65 65 66 66 66 67 68 68 68 68 68 67 68 68 70 69 69 70 71
27 25 29 26 24 22 20 18 18 17 18 28 33 38 53 55 55 57 58 58 58 58 59 60 61 63 64 64 65 66 66 67 67 68 68 68 68 68 68 69 69 69 70 71
23 25 29 26 24 22 21 21 19 18 29 41 41 39 50 54 54 56 58 58 58 58 59 58 60 62 64 64 64 66 66 66 67 67 68 69 69 69 68 68 69 69 70 71
23 24 27 25 24 22 20 19 18 17 16 15 41 34 44 51 53 53 54 57 57 58 58 57 59 61 62 64 64 65 66 66 67 68 67 67 66 67 67 67 68 70 70 70
19 19 20 24 23 22 20 19 17 16 18 19 25 37 36 48 51 52 52 53 54 56 56 56 57 60 61 63 64 64 65 67 67 67 67 67 66 67 67 68 68 69 70 71
17 18 20 18 19 21 21 18 17 19 18 15 16 20 23 40 48 51 52 53 54 54 55 55 56 58 59 62 63 64 65 66 67 67 67 67 66 66 66 67 67 68 69 70
16 16 18 17 16 19 19 18 14 12 13 14 17 22 19 36 42 47 50 51 53 54 55 55 55 55 59 61 62 63 65 65 66 67 67 67 67 67 67 66 67 67 68 69
14 13 15 18 14 14 17 17 14 8 10 13 18 16 19 27 42 44 46 48 49 51 54 55 55 55 56 60 62 63 65 65 66 67 67 67 68 67 67 67 67 67 68 69
16 16 20 16 18 14 16 15 15 10 16 12 14 18 23 28 29 41 43 43 43 45 49 53 54 54 55 58 61 62 64 65 66 67 68 68 68 68 67 67 67 67 68 69
20 16 21 17 17 16 15 16 14 13 10 8 9 12 14 24 27 31 36 43 44 45 45 50 52 53 54 56 59 62 63 64 65 67 68 68 68 68 68 68 67 67 68 68
26 19 18 19 19 17 16 13 13 15 11 6 6 7 18 22 26 22 24 35 43 45 46 47 50 52 53 54 57 60 62 64 64 67 68 68 68 68 68 68 67 67 67 68
36 23 18 18 20 20 18 17 11 12 9 10 8 7 15 14 17 31 30 32 42 46 46 47 48 50 52 53 55 58 61 63 64 65 68 68 68 68 68 68 68 68 67 67
34 27 15 16 18 17 17 15 15 12 11 11 8 8 11 13 15 14 23 33 39 42 47 48 47 48 50 52 54 57 60 62 64 64 66 67 68 68 68 68 68 69 68 68
34 29 24 21 22 23 17 17 16 13 12 13 11 9 11 10 10 15 20 30 32 38 45 48 48 47 49 51 54 56 59 61 63 64 65 66 67 68 68 68 69 70 69 68
28 26 28 28 28 27 25 23 21 16 13 12 13 13 12 13 12 11 17 32 37 38 44 47 47 47 48 50 54 56 59 62 63 64 65 66 67 67 67 68 68 69 70 69
28 24 30 28 26 25 22 23 21 20 16 15 13 12 14 14 17 19 21 26 31 35 41 46 47 48 47 49 53 56 59 62 64 65 65 66 67 67 67 67 67 68 69 70
27 27 29 24 26 26 20 19 20 18 17 15 15 16 13 12 13 14 14 18 25 32 39 43 46 48 49 49 52 56 58 62 64 65 65 66 67 68 68 68 68 67 67 69
28 30 30 26 26 18 20 25 26 17 16 17 17 17 16 15 16 15 16 15 16 26 35 42 45 46 48 50 50 54 57 61 64 64 65 66 67 67 68 68 68 68 68 67
30 27 24 25 24 21 22 35 41 40 20 18 16 17 18 17 17 17 20 20 17 18 31 39 42 45 46 48 51 54 57 60 64 65 66 67 68 68 68 69 69 69 69 69
31 28 23 27 23 19 28 42 48 48 33 44 44 27 17 18 15 17 20 25 25 28 34 39 42 44 45 45 46 52 57 59 62 65 66 67 68 68 68 69 69 70 70 70
26 27 24 23 27 28 36 47 48 32 28 49 51 50 47 24 19 19 21 23 27 28 30 35 41 43 46 48 50 52 57 59 61 64 66 68 69 69 69 70 70 70 71 71
25 25 25 25 27 25 45 46 40 43 50 52 53 54 53 52 30 24 27 28 32 32 33 37 40 46 54 56 56 56 57 58 62 63 66 68 69 70 70 70 71 71 71 71
29 32 31 26 26 38 49 48 50 51 51 52 52 53 58 58 39 31 37 51 53 59 58 45 38 53 59 58 58 56 59 59 61 63 65 67 69 70 70 71 71 71 72 71
32 37 36 37 37 40 49 50 51 53 52 53 54 59 61 48 53 59 62 65 67 67 67 68 68 68 69 70 66 63 63 63 60 59 62 64 65 68 70 71 71 72 72 72
33 34 34 36 38 42 50 50 52 53 54 54 55 59 63 64 65 66 66 66 66 67 67 67 67 67 68 69 70 71 70 66 64 62 62 64 65 63 62 61 64 66 63 71
33 33 32 30 36 39 46 51 53 53 53 54 56 60 61 62 63 64 64 64 65 65 66 66 66 67 67 68 69 70 71 69 69 68 67 65 62 61 63 62 59 58 59 59

GFSCGP_sfc_30mbdewp_045.txt.gz
Dewpoint
32 27 26 27 28 25 23 25 28 28 27 33 33 34 40 53 55 56 56 57 57 57 59 62 63 64 65 66 67 68 69 69 69 68 67 65 64 66 68 69 71 71 72 72
30 25 24 26 25 24 22 21 26 25 21 24 25 30 40 50 54 55 56 57 57 57 58 61 63 64 65 65 67 68 69 69 70 68 67 64 65 66 68 69 71 71 71 72
21 19 24 26 25 23 20 18 21 24 21 33 32 30 43 50 54 55 56 57 57 57 57 59 61 63 64 65 67 68 69 70 70 69 68 68 68 69 68 68 70 70 72 72
18 21 23 23 22 23 16 18 17 23 24 23 36 26 41 46 52 54 55 56 56 56 58 58 59 61 63 65 66 68 69 70 70 71 68 68 65 65 66 68 68 69 71 71
19 21 24 23 20 25 17 18 19 18 23 22 23 26 27 45 48 51 53 55 56 56 57 57 58 60 62 64 64 66 68 69 69 70 69 68 67 66 67 68 69 71 71 72
18 21 24 25 24 24 23 21 19 21 20 19 22 23 24 37 45 48 51 53 56 56 56 58 58 59 61 62 64 65 68 69 70 70 70 69 68 68 67 68 68 68 68 69
18 17 23 23 23 23 21 18 14 15 16 16 20 20 22 27 38 42 48 52 53 56 56 57 58 58 61 62 64 65 67 68 69 69 69 69 69 69 69 69 68 67 67 67
15 15 17 19 19 19 21 14 7 7 8 10 20 18 21 24 25 40 41 46 51 53 55 56 58 58 59 62 63 65 66 67 68 69 69 70 70 69 69 69 67 67 67 67
15 14 17 17 19 18 19 17 12 9 15 11 12 17 21 27 26 28 41 44 48 51 54 55 56 57 58 60 62 65 66 67 68 69 69 69 70 70 68 69 70 68 69 68
21 16 18 16 15 17 16 18 14 14 6 5 8 14 12 24 24 30 34 42 45 48 50 53 55 57 58 59 62 65 66 67 68 68 69 69 69 70 70 70 70 69 70 70
30 21 21 17 16 13 15 16 13 13 10 3 2 1 20 24 28 27 30 37 40 43 45 48 52 57 58 59 59 63 65 66 67 68 68 69 69 69 70 70 70 70 70 71
33 23 20 19 19 17 15 15 16 12 16 11 6 5 20 23 28 31 30 32 37 40 43 46 47 52 55 58 58 60 63 64 66 67 68 69 69 70 69 70 70 70 70 71
31 27 20 20 20 19 17 16 17 15 13 14 8 5 14 21 22 25 30 33 37 43 47 48 47 49 55 57 58 59 61 62 64 66 67 68 69 69 69 70 70 70 70 70
32 29 25 18 21 25 23 20 19 16 15 14 16 10 14 15 17 21 24 28 32 42 46 49 51 51 54 56 58 59 60 61 63 65 66 67 69 69 69 70 70 70 70 70
29 24 25 26 25 25 26 24 23 20 18 17 16 17 18 17 21 23 27 32 33 38 45 48 51 53 55 56 58 59 60 62 62 65 65 67 69 69 70 70 70 70 70 70
28 20 27 20 23 22 23 24 23 22 21 20 19 18 21 23 22 21 21 23 28 33 39 47 52 54 55 56 58 59 60 61 63 65 65 67 68 69 70 70 70 70 70 71
27 24 22 17 21 22 20 21 22 23 22 20 19 21 22 21 24 27 27 31 32 35 41 45 51 55 56 55 57 58 60 62 64 65 66 67 68 69 69 70 70 70 70 71
26 28 29 16 22 16 20 24 30 22 20 20 20 20 21 22 25 28 31 29 29 30 31 37 43 48 55 54 54 58 59 63 65 65 66 67 68 69 69 69 69 70 70 70
26 25 20 13 16 18 20 22 37 36 27 34 26 22 21 21 24 27 28 31 32 33 36 38 37 42 51 54 55 58 60 63 65 65 66 67 68 69 69 69 69 70 69 69
28 27 23 19 12 12 21 25 30 45 28 46 47 43 39 37 23 23 30 32 30 30 32 34 37 43 48 54 53 58 60 63 64 65 66 67 68 68 69 69 70 70 70 69
28 26 22 19 18 18 23 36 48 36 29 48 51 51 51 49 38 39 45 38 37 37 37 40 42 44 51 53 55 59 59 61 63 65 66 68 69 69 69 70 70 71 70 70
28 28 27 22 18 15 24 40 36 43 48 50 52 53 54 55 56 55 53 49 37 41 41 41 45 47 53 57 56 58 61 62 64 65 66 68 69 69 69 70 70 71 71 70
26 27 28 24 19 24 30 36 47 50 50 50 53 55 56 56 57 58 57 51 46 57 56 45 50 57 61 63 61 60 62 64 65 65 66 68 69 70 70 71 71 70 70 70
28 32 32 31 29 33 33 36 42 49 50 52 55 56 57 58 59 60 57 53 63 65 62 61 67 68 69 68 65 64 65 66 66 66 68 69 69 70 71 70 70 70 70 71
28 30 30 30 30 31 36 37 42 49 51 53 56 57 58 61 61 55 58 66 67 67 67 68 68 68 70 71 72 72 68 67 65 65 66 67 68 70 69 65 67 72 73 71
31 30 30 26 30 35 37 41 47 47 51 55 56 57 59 63 63 64 65 66 66 66 66 67 67 67 68 69 71 71 71 69 68 67 67 66 65 65 63 63 62 58 63 68

GFSCGP_sfc_30mbdewp_048.txt.gz
Dewpoint
36 33 27 24 26 24 26 26 27 32 35 34 35 36 36 40 50 50 54 55 55 54 55 57 59 59 60 61 63 65 65 67 68 67 65 63 61 62 62 65 68 71 72 72
25 26 23 23 18 21 23 23 25 29 31 29 32 32 33 35 47 49 52 55 55 55 54 56 58 58 59 61 63 66 67 68 70 67 65 62 61 60 63 66 68 71 71 72
20 18 20 21 24 23 24 23 22 26 29 27 27 28 30 36 43 48 51 53 55 55 54 55 57 58 59 60 63 65 68 69 70 68 66 65 63 64 64 65 67 70 71 71
21 18 19 19 20 21 20 23 22 21 25 25 28 27 30 32 40 45 48 51 53 55 55 53 55 58 58 59 62 65 68 70 71 69 65 66 61 60 61 65 65 66 69 69
21 19 17 18 18 17 17 18 19 20 20 22 24 25 26 31 34 42 46 50 51 54 54 53 53 55 57 60 62 64 68 70 71 71 69 67 65 59 62 64 67 70 69 70
15 16 16 17 17 16 17 16 16 18 18 17 20 23 23 26 34 36 42 48 51 52 53 55 53 54 57 59 61 63 68 71 71 71 70 70 67 65 63 66 66 67 67 68
16 15 18 17 18 19 16 16 11 10 11 15 19 20 23 25 27 35 37 42 49 52 52 54 55 53 55 58 60 63 67 71 71 71 70 71 70 70 69 68 67 66 64 64
17 14 15 18 18 19 16 14 6 8 8 11 16 16 19 24 26 28 36 37 47 50 53 53 55 56 56 57 61 64 67 70 70 70 71 72 72 69 68 68 66 66 65 63
17 17 16 18 20 18 18 16 10 4 9 9 8 14 18 21 24 26 28 32 36 44 51 53 54 56 57 59 61 65 67 70 71 70 72 72 72 71 67 69 70 68 68 65
22 18 17 16 19 17 16 18 9 7 4 5 4 7 10 17 20 25 25 27 33 36 46 51 54 55 57 59 61 64 68 70 71 70 71 71 71 72 72 71 71 70 70 70
25 20 19 16 15 15 14 14 14 8 6 5 7 4 9 13 20 22 23 25 30 34 42 50 52 54 56 58 59 62 66 68 69 69 70 71 71 70 72 71 72 72 72 72
27 24 21 17 17 15 15 14 15 11 12 9 6 3 9 14 14 21 20 24 28 33 36 45 48 52 54 56 57 59 62 64 66 68 70 71 71 71 70 71 71 72 72 73
31 23 21 21 18 16 14 14 13 14 11 14 10 6 17 21 22 22 25 26 29 31 35 38 40 44 49 53 58 57 60 61 64 67 67 69 71 71 71 72 72 72 72 73
30 27 23 20 20 19 17 15 14 12 14 12 14 13 11 13 16 19 25 26 29 33 37 39 42 42 44 50 58 61 59 60 62 64 66 68 70 71 71 72 72 72 73 73
25 26 28 27 27 25 24 17 16 16 16 15 15 15 17 16 17 21 23 24 29 34 36 39 45 45 50 52 58 63 61 61 60 64 65 67 70 71 72 72 72 73 73 73
25 25 26 26 24 23 23 24 24 20 18 18 19 18 20 20 22 22 23 22 22 22 23 30 41 45 50 54 57 60 62 62 63 64 66 68 70 71 72 72 72 73 73 73
23 21 23 21 23 22 22 23 23 23 23 22 21 22 23 24 24 24 26 27 26 26 27 31 38 45 49 54 57 59 62 62 64 65 67 68 70 71 72 72 72 72 73 72
22 23 19 20 22 20 22 23 24 24 24 24 24 24 24 25 26 26 28 28 27 26 26 32 33 34 46 49 49 58 59 63 65 66 67 69 70 70 71 72 72 73 73 72
20 22 18 18 19 20 21 22 23 24 26 25 24 25 25 24 23 24 24 26 28 31 29 31 29 27 31 39 46 53 59 61 63 66 67 68 70 70 71 72 72 73 72 72
17 22 20 15 16 16 20 23 25 29 26 31 38 37 36 31 23 23 24 26 30 29 30 30 32 31 32 37 44 52 59 61 65 66 67 69 70 70 71 71 72 71 71 70
17 19 17 16 15 17 19 29 40 28 38 45 47 48 49 47 43 45 47 47 47 46 43 39 40 40 41 42 50 54 58 61 65 64 65 68 70 71 71 72 72 71 71 70
22 19 14 14 12 11 17 21 32 41 45 47 47 47 49 51 52 52 53 53 51 49 49 43 42 43 45 51 56 60 62 63 65 66 65 68 70 69 68 71 71 71 71 72
19 20 22 19 13 18 24 27 29 33 37 41 45 46 46 47 49 51 56 57 56 55 51 45 48 46 51 56 59 59 65 66 64 65 67 68 69 69 69 71 71 70 71 69
20 22 23 25 25 26 29 29 32 36 37 38 43 46 45 46 47 53 59 60 58 57 52 53 52 51 57 62 64 64 64 66 66 66 67 68 69 70 70 69 70 69 68 69
23 25 25 26 27 27 29 31 31 32 44 44 46 46 47 49 51 57 61 61 59 56 63 61 60 64 67 68 67 66 66 66 65 66 67 68 68 70 70 69 67 69 69 68
27 26 25 24 26 26 27 28 33 37 38 39 41 46 48 52 57 61 63 63 65 66 66 66 68 69 70 72 71 70 68 67 66 67 67 67 66 69 70 69 66 58 60 64